CW4957 Weather Reports


Display with metric or nautical units.
time (UTC)temp
F
wind
direction
speed
MPH
gust
MPH
rain 1hr
in
rain 24hr
in
rain mn
in
humidity
%
barometer
mb
20240616152501 71 213 0.0 1.0 0.00 0.00 0.00 45 1024.2
20240616151942 70 213 0.0 1.0 0.00 0.00 0.00 44 1024.2
20240616151504 70 213 1.0 2.0 0.00 0.00 0.00 43 1024.2
20240616150940 70 213 1.0 2.0 0.00 0.00 0.00 44 1024.3
20240616150458 70 213 1.0 2.0 0.00 0.00 0.00 50 1024.3
20240616145953 70 225 0.0 4.0 0.00 0.00 0.00 46 1024.3
20240616145451 70 225 1.0 4.0 0.00 0.00 0.00 42 1024.4
20240616144935 70 117 1.0 3.0 0.00 0.00 0.00 45 1024.4
20240616144453 70 117 1.0 2.0 0.00 0.00 0.00 43 1024.4
20240616143951 70 117 1.0 2.0 0.00 0.00 0.00 45 1024.2
20240616143434 69 117 0.0 2.0 0.00 0.00 0.00 44 1024.2
20240616142937 69 117 0.0 3.0 0.00 0.00 0.00 47 1024.2
20240616142444 69 117 1.0 3.0 0.00 0.00 0.00 46 1024.5
20240616141947 68 183 1.0 3.0 0.00 0.00 0.00 49 1024.5
20240616141445 68 183 0.0 3.0 0.00 0.00 0.00 48 1024.5
20240616140947 68 183 1.0 3.0 0.00 0.00 0.00 50 1024.6
20240616140445 67 98 2.0 3.0 0.00 0.00 0.00 50 1024.6
20240616135947 67 331 1.0 3.0 0.00 0.00 0.00 49 1024.6
20240616135448 67 253 2.0 3.0 0.00 0.00 0.00 50 1024.6
20240616134950 67 193 0.0 1.0 0.00 0.00 0.00 53 1024.6
20240616134455 66 193 0.0 2.0 0.00 0.00 0.00 57 1024.6
20240616134011 66 193 0.0 2.0 0.00 0.00 0.00 57 1024.6
20240616133451 65 236 0.0 2.0 0.00 0.00 0.00 62 1024.6
20240616132949 64 224 0.0 2.0 0.00 0.00 0.00 65 1024.6
20240616132436 63 224 1.0 1.0 0.00 0.00 0.00 68 1024.6
20240616131937 62 224 0.0 2.0 0.00 0.00 0.00 69 1024.6
20240616131436 61 224 1.0 2.0 0.00 0.00 0.00 69 1024.6
20240616130934 61 225 0.0 2.0 0.00 0.00 0.00 72 1024.6
20240616130435 60 360 1.0 2.0 0.00 0.00 0.00 72 1024.6
20240616125936 59 360 0.0 2.0 0.00 0.00 0.00 77 1024.6
20240616125433 58 360 1.0 2.0 0.00 0.00 0.00 77 1024.6
20240616124935 57 360 1.0 2.0 0.00 0.00 0.00 81 1024.6
20240616124438 56 360 0.0 1.0 0.00 0.00 0.00 80 1024.6
20240616123940 55 360 0.0 1.0 0.00 0.00 0.00 80 1024.7
20240616123505 55 111 0.0 1.0 0.00 0.00 0.00 81 1024.7
20240616122946 54 360 0.0 1.0 0.00 0.00 0.00 82 1024.7
20240616122447 54 110 0.0 0.0 0.00 0.00 0.00 81 1024.6
20240616121950 54 110 0.0 1.0 0.00 0.00 0.00 82 1024.6
20240616121434 53 110 0.0 1.0 0.00 0.00 0.00 84 1024.6
20240616120956 53 110 0.0 0.0 0.00 0.00 0.00 84 1024.8
20240616120446 53 110 0.0 0.0 0.00 0.00 0.00 84 1024.8
20240616115949 52 110 0.0 1.0 0.00 0.00 0.00 84 1024.8
20240616115433 52 110 0.0 1.0 0.00 0.00 0.00 84 1024.7
20240616114938 51 110 0.0 1.0 0.00 0.00 0.00 87 1024.7
20240616114443 51 110 0.0 0.0 0.00 0.00 0.00 88 1024.7
20240616113952 51 110 0.0 1.0 0.00 0.00 0.00 89 1024.6
20240616113436 50 110 0.0 2.0 0.00 0.00 0.00 89 1024.6
20240616112944 50 110 1.0 2.0 0.00 0.00 0.00 90 1024.6
20240616112504 50 110 0.0 1.0 0.00 0.00 0.00 89 1024.5
20240616111946 50 110 0.0 1.0 0.00 0.00 0.00 90 1024.5
20240616111448 49 110 0.0 0.0 0.00 0.00 0.00 90 1024.5
20240616110932 49 110 0.0 0.0 0.00 0.00 0.00 89 1024.4
20240616110444 49 110 0.0 0.0 0.00 0.00 0.00 89 1024.4
20240616105938 49 110 0.0 0.0 0.00 0.00 0.00 89 1024.4
20240616105437 48 110 0.0 0.0 0.00 0.00 0.00 88 1024.1
20240616104938 48 110 0.0 0.0 0.00 0.00 0.00 88 1024.1
20240616104439 48 110 0.0 0.0 0.00 0.00 0.00 88 1024.1
20240616103938 48 110 0.0 0.0 0.00 0.00 0.00 87 1024.0
20240616103437 48 110 0.0 0.0 0.00 0.00 0.00 87 1024.0
20240616102938 48 110 0.0 0.0 0.00 0.00 0.00 87 1024.0
20240616102457 48 110 0.0 0.0 0.00 0.00 0.00 86 1023.5
20240616101933 48 110 0.0 0.0 0.00 0.00 0.00 86 1023.5
20240616101435 48 110 0.0 0.0 0.00 0.00 0.00 86 1023.5
20240616101011 48 110 0.0 0.0 0.00 0.00 0.00 85 1023.5
20240616100447 48 98 0.0 0.0 0.00 0.00 0.00 85 1023.5
20240616095950 48 98 0.0 0.0 0.00 0.00 0.00 85 1023.5
20240616095450 49 98 0.0 0.0 0.00 0.00 0.00 85 1023.4
20240616094933 49 98 0.0 0.0 0.00 0.00 0.00 85 1023.4
20240616094456 49 98 0.0 0.0 0.00 0.00 0.00 85 1023.4
20240616093934 49 98 0.0 0.0 0.00 0.00 0.00 85 1023.0
20240616093438 49 98 0.0 0.0 0.00 0.00 0.00 85 1023.0
20240616092937 49 98 0.0 0.0 0.00 0.00 0.00 85 1023.0
20240616092438 49 98 0.0 0.0 0.00 0.00 0.00 85 1022.8
20240616091938 49 98 0.0 0.0 0.00 0.00 0.00 85 1022.8
20240616091438 49 98 0.0 0.0 0.00 0.00 0.00 85 1022.8
20240616090939 49 98 0.0 0.0 0.00 0.00 0.00 85 1022.5
20240616090442 49 98 0.0 0.0 0.00 0.00 0.00 85 1022.5
20240616085943 50 98 0.0 0.0 0.00 0.00 0.00 85 1022.5
20240616085444 50 98 0.0 0.0 0.00 0.00 0.00 85 1022.4
20240616084945 50 98 0.0 0.0 0.00 0.00 0.00 85 1022.4
20240616084444 50 98 0.0 0.0 0.00 0.00 0.00 85 1022.4
20240616083943 50 98 0.0 0.0 0.00 0.00 0.00 85 1021.9
20240616083437 50 98 0.0 0.0 0.00 0.00 0.00 84 1021.9
20240616083014 50 98 0.0 0.0 0.00 0.00 0.00 84 1021.9
20240616082508 50 98 0.0 0.0 0.00 0.00 0.00 84 1021.8
20240616081946 50 98 0.0 0.0 0.00 0.00 0.00 84 1021.8
20240616081505 50 98 0.0 0.0 0.00 0.00 0.00 83 1021.8
20240616080943 51 98 0.0 0.0 0.00 0.00 0.00 83 1021.7
20240616080441 51 98 0.0 0.0 0.00 0.00 0.00 83 1021.7
20240616075943 51 98 0.0 0.0 0.00 0.00 0.00 82 1021.7
20240616075439 51 98 0.0 0.0 0.00 0.00 0.00 81 1021.5
20240616074933 51 98 0.0 0.0 0.00 0.00 0.00 81 1021.5
20240616074459 52 98 0.0 0.0 0.00 0.00 0.00 81 1021.5
20240616073941 52 98 0.0 0.0 0.00 0.00 0.00 81 1021.5
20240616073503 52 98 0.0 0.0 0.00 0.00 0.00 81 1021.5
20240616072943 52 98 0.0 0.0 0.00 0.00 0.00 81 1021.5
20240616072443 52 98 0.0 0.0 0.00 0.00 0.00 81 1021.4
20240616071940 52 98 0.0 0.0 0.00 0.00 0.00 80 1021.4
20240616071444 52 98 0.0 0.0 0.00 0.00 0.00 80 1021.4
20240616070949 53 98 0.0 0.0 0.00 0.00 0.00 79 1021.5
20240616070505 53 98 0.0 0.0 0.00 0.00 0.00 79 1021.5
20240616065939 53 98 0.0 0.0 0.00 0.00 0.00 79 1021.5
20240616065448 53 98 0.0 0.0 0.00 0.00 0.00 79 1021.4
20240616064948 53 98 0.0 0.0 0.00 0.00 0.00 78 1021.4
20240616064509 53 98 0.0 0.0 0.00 0.00 0.00 78 1021.4
20240616063949 53 98 0.0 0.0 0.00 0.00 0.00 78 1021.4
20240616063512 54 98 0.0 0.0 0.00 0.00 0.00 78 1021.4
20240616062933 54 98 0.0 0.0 0.00 0.00 0.00 78 1021.4
20240616062450 54 98 0.0 0.0 0.00 0.00 0.00 78 1021.3
20240616061934 54 98 0.0 0.0 0.00 0.00 0.00 78 1021.3
20240616061442 54 98 0.0 0.0 0.00 0.00 0.00 78 1021.3
20240616060940 54 98 0.0 0.0 0.00 0.00 0.00 77 1021.4
20240616060440 54 98 0.0 0.0 0.00 0.00 0.00 77 1021.4
20240616055938 55 98 0.0 0.0 0.00 0.00 0.00 76 1021.4
20240616055438 55 98 0.0 0.0 0.00 0.00 0.00 75 1021.3
20240616054938 55 98 0.0 0.0 0.00 0.00 0.00 75 1021.3
20240616054437 55 98 0.0 0.0 0.00 0.00 0.00 75 1021.3
20240616053958 56 98 0.0 0.0 0.00 0.00 0.00 75 1021.1
20240616053436 56 98 0.0 0.0 0.00 0.00 0.00 74 1021.1
20240616053011 56 98 0.0 0.0 0.00 0.00 0.00 74 1021.1
20240616052447 56 98 0.0 0.0 0.00 0.00 0.00 74 1021.0
20240616051939 56 98 0.0 0.0 0.00 0.00 0.00 73 1021.0
20240616051437 57 98 0.0 0.0 0.00 0.00 0.00 72 1021.0
20240616050942 57 98 0.0 0.0 0.00 0.00 0.00 72 1021.0
20240616050437 57 98 0.0 0.0 0.00 0.00 0.00 72 1021.0
20240616045941 57 98 0.0 0.0 0.00 0.00 0.00 71 1021.0
20240616045443 57 98 0.0 0.0 0.00 0.00 0.00 71 1020.9
20240616044944 57 98 0.0 0.0 0.00 0.00 0.00 70 1020.9
20240616044505 57 98 0.0 0.0 0.00 0.00 0.00 68 1020.9
20240616044002 58 98 0.0 0.0 0.00 0.00 0.00 67 1020.8
20240616043446 58 98 0.0 0.0 0.00 0.00 0.00 67 1020.8
20240616042932 58 98 0.0 0.0 0.00 0.00 0.00 66 1020.8
20240616042435 59 98 0.0 0.0 0.00 0.00 0.00 65 1020.8
20240616041949 59 98 0.0 0.0 0.00 0.00 0.00 64 1020.8
20240616041449 59 98 0.0 0.0 0.00 0.00 0.00 63 1020.8
20240616040947 59 98 0.0 0.0 0.00 0.00 0.00 63 1020.6
20240616040449 59 98 0.0 0.0 0.00 0.00 0.00 63 1020.6
20240616035946 60 98 0.0 0.0 0.00 0.01 0.00 63 1020.6
20240616035449 60 98 0.0 0.0 0.00 0.01 0.00 63 1020.4
20240616035004 60 98 0.0 0.0 0.00 0.01 0.00 61 1020.4
20240616034439 60 98 0.0 0.0 0.00 0.01 0.00 61 1020.4
20240616033937 60 98 0.0 0.0 0.00 0.01 0.00 60 1020.3
20240616033433 61 98 0.0 0.0 0.00 0.01 0.00 60 1020.3
20240616032955 61 98 0.0 0.0 0.00 0.01 0.00 61 1020.3
20240616032501 61 98 0.0 0.0 0.00 0.01 0.00 60 1019.9
20240616031947 61 98 0.0 0.0 0.00 0.01 0.00 61 1019.9
20240616031444 61 98 0.0 0.0 0.00 0.01 0.00 61 1019.9
20240616030947 62 98 0.0 0.0 0.00 0.01 0.00 60 1019.8
20240616030503 62 98 0.0 0.0 0.00 0.01 0.00 59 1019.8
20240616025958 62 98 0.0 0.0 0.00 0.01 0.00 59 1019.8
20240616025436 63 98 0.0 0.0 0.00 0.01 0.00 59 1019.5
20240616024939 63 98 0.0 0.0 0.00 0.01 0.00 58 1019.5
20240616024434 63 98 0.0 0.0 0.00 0.01 0.00 58 1019.5
20240616023930 63 98 0.0 0.0 0.00 0.01 0.00 57 1019.3
20240616023515 64 98 0.0 0.0 0.00 0.01 0.00 57 1019.3
20240616023001 64 98 0.0 0.0 0.00 0.01 0.00 57 1019.3
20240616022504 64 98 0.0 0.0 0.00 0.01 0.00 57 1018.8
20240616021947 64 98 0.0 0.0 0.00 0.01 0.00 56 1018.8
20240616021443 64 98 0.0 0.0 0.00 0.01 0.00 56 1018.8
20240616020950 65 98 0.0 0.0 0.00 0.01 0.00 56 1018.8
20240616020444 65 98 0.0 0.0 0.00 0.01 0.00 55 1018.8
20240616015944 65 98 0.0 0.0 0.00 0.01 0.00 55 1018.8
20240616015444 65 98 0.0 0.0 0.00 0.01 0.00 55 1018.3
20240616014944 66 98 0.0 0.0 0.00 0.01 0.00 55 1018.3
20240616014440 66 98 0.0 2.0 0.00 0.01 0.00 54 1018.3
20240616013944 66 32 0.0 1.0 0.00 0.01 0.00 54 1017.9
20240616013446 66 32 0.0 2.0 0.00 0.01 0.00 53 1017.9
20240616012950 66 32 0.0 2.0 0.00 0.01 0.00 53 1017.9
20240616012450 67 32 0.0 1.0 0.00 0.01 0.00 53 1017.7
20240616011951 67 32 0.0 4.0 0.00 0.01 0.00 53 1017.7
20240616011434 67 32 1.0 4.0 0.00 0.01 0.00 52 1017.7
20240616010936 67 36 1.0 3.0 0.00 0.01 0.00 52 1017.4
20240616010439 68 36 1.0 3.0 0.00 0.01 0.00 52 1017.4
20240616005945 68 22 1.0 2.0 0.00 0.01 0.00 52 1017.4
20240616005448 68 22 0.0 3.0 0.00 0.01 0.00 51 1017.2
20240616004943 69 22 0.0 3.0 0.00 0.01 0.00 51 1017.2
20240616004441 69 52 0.0 1.0 0.00 0.01 0.00 51 1017.2
20240616003940 69 52 0.0 2.0 0.00 0.01 0.00 50 1017.0
20240616003433 70 52 0.0 2.0 0.00 0.01 0.00 49 1017.0
20240616002935 70 52 0.0 1.0 0.00 0.01 0.00 49 1017.0
20240616002452 71 52 0.0 0.0 0.00 0.01 0.00 49 1016.8
20240616001938 71 52 0.0 0.0 0.00 0.01 0.00 49 1016.8
20240616001439 71 52 0.0 0.0 0.00 0.01 0.00 48 1016.8
20240616000936 71 52 0.0 0.0 0.00 0.01 0.00 47 1016.6
20240616000436 71 52 0.0 0.0 0.00 0.01 0.00 48 1016.6
20240615235934 71 52 0.0 0.0 0.00 0.01 0.00 48 1016.6
20240615235439 72 52 0.0 1.0 0.00 0.01 0.00 47 1016.3
20240615235005 72 52 0.0 2.0 0.00 0.01 0.00 45 1016.3
20240615234450 72 52 1.0 2.0 0.00 0.01 0.00 45 1016.3
20240615233932 72 52 0.0 0.0 0.00 0.01 0.00 45 1016.2
20240615233436 72 52 0.0 1.0 0.00 0.01 0.00 44 1016.2
20240615232951 72 52 0.0 3.0 0.00 0.01 0.00 44 1016.2
20240615232443 73 52 1.0 3.0 0.00 0.01 0.00 44 1015.9
20240615231943 73 360 0.0 1.0 0.00 0.01 0.00 44 1015.9
20240615231444 73 360 0.0 3.0 0.00 0.01 0.00 42 1015.9
20240615230941 73 360 2.0 3.0 0.00 0.01 0.00 42 1015.6
20240615230502 74 76 1.0 3.0 0.00 0.01 0.00 41 1015.6
20240615225942 74 360 1.0 3.0 0.00 0.01 0.00 41 1015.6
20240615225440 74 360 0.0 3.0 0.00 0.01 0.00 42 1015.7
20240615224944 74 360 0.0 4.0 0.00 0.01 0.00 40 1015.7
20240615224436 75 360 1.0 3.0 0.00 0.01 0.00 39 1015.7
20240615223936 75 360 1.0 2.0 0.00 0.01 0.00 38 1015.5
20240615223437 76 42 0.0 3.0 0.00 0.01 0.00 38 1015.5
20240615222944 76 42 1.0 3.0 0.00 0.01 0.00 38 1015.5
20240615222447 77 38 0.0 3.0 0.00 0.01 0.00 37 1015.2
20240615222003 77 38 1.0 3.0 0.00 0.01 0.00 36 1015.2
20240615221444 77 36 1.0 3.0 0.00 0.01 0.00 36 1015.2
20240615220948 78 343 0.0 3.0 0.00 0.01 0.00 37 1015.3
20240615220448 78 344 1.0 4.0 0.00 0.01 0.00 36 1015.3
20240615215949 78 46 1.0 4.0 0.00 0.01 0.00 36 1015.3
20240615215435 79 33 0.0 3.0 0.00 0.01 0.00 35 1015.2
20240615214940 79 290 0.0 2.0 0.00 0.01 0.00 35 1015.2
20240615214443 79 305 0.0 2.0 0.00 0.01 0.00 35 1015.2
20240615213944 79 330 0.0 4.0 0.00 0.01 0.00 34 1015.2
20240615213510 79 51 1.0 4.0 0.00 0.01 0.00 35 1015.2
20240615212950 80 46 1.0 3.0 0.00 0.01 0.00 34 1015.2
20240615212449 80 35 1.0 2.0 0.00 0.01 0.00 33 1015.3
20240615211951 80 13 0.0 2.0 0.00 0.01 0.00 33 1015.3
20240615211455 80 31 1.0 3.0 0.00 0.01 0.00 34 1015.3
20240615210934 79 71 1.0 3.0 0.00 0.01 0.00 34 1015.2
20240615210434 79 334 1.0 3.0 0.00 0.01 0.00 36 1015.2
20240615210012 79 344 1.0 5.0 0.00 0.01 0.00 35 1015.2
20240615205452 79 23 1.0 5.0 0.00 0.01 0.00 35 1015.1
20240615204931 79 31 2.0 5.0 0.00 0.01 0.00 33 1015.1
20240615204433 80 46 3.0 5.0 0.00 0.01 0.00 32 1015.1
20240615203936 80 200 0.0 2.0 0.00 0.01 0.00 35 1015.1
20240615203455 79 163 1.0 4.0 0.00 0.01 0.00 35 1015.1
20240615202938 79 50 2.0 4.0 0.00 0.01 0.00 34 1015.1
20240615202436 79 280 1.0 4.0 0.00 0.01 0.00 33 1015.1
20240615201955 79 33 2.0 3.0 0.00 0.01 0.00 33 1015.1
20240615201440 79 278 1.0 3.0 0.00 0.01 0.00 35 1015.1
20240615200942 78 291 1.0 5.0 0.00 0.01 0.00 36 1014.7
20240615200443 78 34 1.0 5.0 0.00 0.01 0.00 38 1014.7
20240615200003 78 333 1.0 4.0 0.00 0.01 0.00 35 1014.7
20240615195447 77 55 1.0 4.0 0.00 0.01 0.00 34 1014.7
20240615194952 78 38 1.0 4.0 0.00 0.01 0.00 35 1014.7
20240615194431 78 47 1.0 4.0 0.00 0.01 0.00 33 1014.7
20240615193935 79 40 1.0 9.0 0.00 0.01 0.00 34 1014.7
20240615193436 79 5 3.0 9.0 0.00 0.01 0.00 34 1014.7
20240615192936 78 24 1.0 3.0 0.00 0.01 0.00 36 1014.7
20240615192455 79 5 1.0 3.0 0.00 0.01 0.00 35 1014.7
20240615191937 79 222 1.0 3.0 0.00 0.01 0.00 35 1014.7
20240615191442 78 221 1.0 7.0 0.00 0.01 0.00 37 1014.7
20240615190945 77 263 1.0 7.0 0.00 0.01 0.00 37 1014.7
20240615190502 77 40 1.0 5.0 0.00 0.01 0.00 35 1014.7
20240615190009 77 49 3.0 5.0 0.00 0.01 0.00 34 1014.7
20240615185452 77 11 1.0 4.0 0.00 0.01 0.00 41 1014.8
20240615184933 76 15 1.0 5.0 0.00 0.01 0.00 36 1014.8
20240615184439 76 34 1.0 5.0 0.00 0.01 0.00 35 1014.8
20240615184001 78 49 2.0 4.0 0.00 0.01 0.00 35 1015.2
20240615183459 78 32 0.0 5.0 0.00 0.01 0.00 39 1015.2
20240615182939 78 52 2.0 6.0 0.00 0.01 0.00 36 1015.2
20240615182455 78 198 1.0 6.0 0.00 0.01 0.00 33 1015.1
20240615181935 78 355 1.0 4.0 0.00 0.01 0.00 38 1015.1
20240615181438 78 196 1.0 4.0 0.00 0.01 0.00 36 1015.1
20240615180939 77 223 1.0 4.0 0.00 0.01 0.00 35 1015.0
20240615180440 76 46 1.0 7.0 0.00 0.01 0.00 39 1015.0
20240615175951 76 36 2.0 7.0 0.00 0.01 0.00 40 1015.0
20240615175430 76 71 1.0 4.0 0.00 0.02 0.00 41 1014.8
20240615174933 75 44 0.0 5.0 0.00 0.02 0.00 45 1014.8
20240615174433 74 44 1.0 7.0 0.00 0.02 0.00 38 1014.8
20240615173951 74 45 3.0 7.0 0.00 0.02 0.00 37 1014.8
20240615173435 74 32 1.0 4.0 0.00 0.02 0.00 39 1014.8
20240615172939 74 32 2.0 5.0 0.00 0.02 0.00 38 1014.8
20240615172457 74 48 2.0 9.0 0.00 0.02 0.00 39 1014.7
20240615171941 74 45 3.0 9.0 0.00 0.02 0.00 38 1014.7
20240615171440 75 38 1.0 4.0 0.00 0.02 0.00 38 1014.7
20240615170941 75 213 2.0 5.0 0.00 0.02 0.00 38 1015.1
20240615170437 74 5 2.0 5.0 0.00 0.02 0.00 40 1015.1
20240615165940 74 34 2.0 5.0 0.00 0.03 0.00 38 1015.1
20240615165506 74 36 2.0 4.0 0.00 0.03 0.00 40 1015.1
20240615164948 73 61 1.0 6.0 0.00 0.03 0.00 41 1015.1
20240615164433 73 78 1.0 6.0 0.00 0.03 0.00 41 1015.1
20240615163956 73 30 2.0 6.0 0.00 0.03 0.00 42 1015.2
20240615163502 73 28 3.0 6.0 0.00 0.03 0.00 39 1015.2
20240615162939 73 26 2.0 5.0 0.00 0.03 0.00 40 1015.2
20240615162444 72 330 1.0 7.0 0.00 0.03 0.00 43 1015.0
20240615161944 72 34 3.0 7.0 0.00 0.03 0.00 40 1015.0
20240615161445 72 34 3.0 7.0 0.00 0.03 0.00 40 1015.0
20240615160948 72 37 4.0 7.0 0.00 0.03 0.00 39 1014.9
20240615160448 72 32 1.0 7.0 0.00 0.03 0.00 40 1014.9
20240615155951 72 46 2.0 6.0 0.00 0.03 0.00 40 1014.9
20240615155436 72 18 2.0 7.0 0.00 0.03 0.00 40 1014.8
20240615154939 72 5 3.0 7.0 0.00 0.03 0.00 37 1014.8
20240615154440 72 60 3.0 7.0 0.00 0.03 0.00 41 1014.8
20240615153959 72 306 2.0 6.0 0.00 0.03 0.00 40 1014.5
20240615153448 72 51 4.0 6.0 0.00 0.03 0.00 39 1014.5
20240615152950 72 83 1.0 4.0 0.00 0.03 0.00 42 1014.5